STARLINK-1402, 45685

Orbit data source: Space-Track

STARLINK-1402, 45685 is a payload satellite owned by SpaceX/Seattle (US) in LEO that was launched on Thu, 04 Jun 2020 UTC via an FALCON 9 launch vehicle from the Air Force Eastern Test Range (AFETR). Payload-class satellites include a variety of spacecraft equipped with specific instruments for various scientific and technological missions. These include communications satellites like Starlink; space stations such as the ISS; scientific satellites like the Hubble; Earth observation satellites from companies like Planet Labs, Umbra, and HawkEye 360; GPS; miniature CubeSats for education and research; and military/defense satellites.

Loading next visibility...
Identifier
45685, 2020-035AE
Orbit
LEO
Country
Flag of USUS
Related business
Manufacturer
SpaceX/Seattle
Mission
Partially operational Commercial Communications
Bus & Motor
STARLINK, Unknown motor
Mass
260 kg wet, ~248 kg dry
Launch date (UTC)
2020-06-04 (6 years ago)
Launch vehicle
FALCON 9
Launch site
Air Force Eastern Test Range (AFETR)
Object type
Payload
Rocket body
Debris
Shape & HBR
Box + 1 Pan, 10.1 m
Radar Cross Section
13.562 m², Large (>1 m²)

Expand to show TLE details & history
Last TLE update: 15 hours ago

TLE from 15 hours ago
0 STARLINK-1402
1 45685U 20035AE  26130.17893014  .00061946  00000-0  92783-3 0  9991
2 45685  53.0408  88.4258 0007880  67.6076 292.5768 15.54364313328883
Epoch: 2026-05-10T04:17Z
TLE epoch observation values (Epoch: 2026-05-10T04:17:39.564Z)
Latitude
0.00001°
Longitude
156.02522°
Altitude
402.849 km
Speed
7.671 km/s
True Right ascension
05h 53m 42s
True Declination
0° 00' 00"
Sunlit
Object was in daylight at epoch
Visualization orbit readout
Latitude
Unknown
Longitude
Unknown
Altitude
Unknown
Speed
Unknown
Apparent Right ascension
Unknown
Apparent Declination
Unknown
Sunlit
N/A
Visualization observer readout
Local Sidereal Time
03:35:08
Azimuth
Unknown
Elevation
Unknown
Doppler factor
Unknown
Orbital elements
Apogee altitude
409.624 km
Perigee altitude
398.935 km
Semi-major axis
6,782.417 km
Eccentricity
0.00079
Inclination
53.0408°
RAAN
88.4258°
Arg. of periapsis
67.6076°
True anomaly
292.49339°
Mean anomaly
292.5768°
Eccentric anomaly
292.5351°
Mean motion
3.88568 °/min
Orbital period
92.65 mins
BSTAR
0.00092783
Loading maneuver chart data...
Computing Atmospheric mass density...

Documentation

Showing up to 5 results
|